Weather History for Williamtown, NW

Change the Weather History Date:

Monday, September 16, 2013

  Actual Average Record
Temperature  
Mean Temperature 57 °F -  
Max Temperature 66 °F 72 °F - ()
Min Temperature 48 °F 51 °F - ()
Degree Days  
Heating Degree Days 8    
Growing Degree Days 7 (Base 50)    
Moisture  
Dew Point 55 °F    
Average Humidity 88    
Maximum Humidity 100    
Minimum Humidity 58    
Precipitation  
Precipitation 0.94 in 0.09 in - ()
Sea Level Pressure  
Sea Level Pressure 29.87 in    
Wind  
Wind Speed 6 mph ()    
Max Wind Speed 15 mph    
Max Gust Speed 25 mph    
Visibility 6.4 miles    
Events Rain    
T = Trace of Precipitation, MM = Missing Value Source: Averaged Metar Reports

Daily Weather History Graph

Daily Weather History Graph

Search for Another Location

Airport:

Trip Planner

Search our weather history database for the weather conditions in past years. The results will help you decide how hot, cold, wet, or windy it might be!

Date:

Astronomy

Sep. 16, 2013 Rise Set
Actual Time 5:50 AM EST 5:44 PM EST
Civil Twilight 5:26 AM EST 6:09 PM EST
Nautical Twilight 4:57 AM EST 6:38 PM EST
Astronomical Twilight 4:28 AM EST 7:06 PM EST
Moon 2:21 PM EST (9/16) 3:07 AM EST (9/16)
Length of Visible Light 12h 43m
Length of Day
11h 54m
Waxing Gibbous, 85% of the Moon is Illuminated
Sep 16
Waxing Gibbous
Sep 19
Full
Sep 27
Last Quarter
Oct 5
New
Oct 12
First Quarter

Hourly Weather History & Observations

Time (EST) Temp. Dew Point Humidity Pressure Visibility Wind Dir Wind Speed Gust Speed Precip Events Conditions
12:00 AM 51 °F 49 °F 91% 30.06 in - ENE 4.6 mph - -  
12:00 AM 50.0 °F 50.0 °F 100% 30.04 in 6.2 mi ENE 4.6 mph - N/A   Scattered Clouds
12:30 AM 51.8 °F 50.0 °F 94% 30.04 in 6.2 mi East 1.2 mph - N/A   Scattered Clouds
1:00 AM 51 °F 49 °F 92% 30.03 in - Calm Calm - -  
1:00 AM 51.8 °F 50.0 °F 94% 30.01 in 6.2 mi Calm Calm - N/A   Unknown
1:30 AM 51.8 °F 50.0 °F 94% 30.01 in 6.2 mi East 4.6 mph - N/A   Unknown
2:00 AM 51.8 °F 50.0 °F 94% 29.98 in 6.2 mi ENE 4.6 mph - N/A   Unknown
2:30 AM 50.0 °F 48.2 °F 94% 29.98 in 6.2 mi East 3.5 mph - N/A   Unknown
3:00 AM 51 °F 50 °F 93% 30.01 in - ENE 4.6 mph - -  
3:00 AM 51.8 °F 50.0 °F 94% 30.01 in 6.2 mi ENE 4.6 mph - N/A   Scattered Clouds
3:30 AM 50.0 °F 48.2 °F 94% 29.98 in 6.2 mi Calm Calm - N/A   Unknown
4:00 AM 51 °F 50 °F 93% 30.00 in - Calm Calm - -  
4:00 AM 51.8 °F 50.0 °F 94% 29.98 in 6.2 mi Calm Calm - N/A   Scattered Clouds
4:30 AM 51.8 °F 50.0 °F 94% 30.01 in 6.2 mi Calm Calm - N/A   Mostly Cloudy
5:00 AM 51.8 °F 50.0 °F 94% 30.01 in 6.2 mi Calm Calm - N/A   Scattered Clouds
5:30 AM 51.8 °F 50.0 °F 94% 30.01 in 6.2 mi Calm Calm - N/A   Unknown
6:00 AM 51.8 °F 50.0 °F 94% 29.98 in 6.2 mi Calm Calm - N/A   Mostly Cloudy
6:30 AM 51.8 °F 51.8 °F 100% 29.98 in 6.2 mi Calm Calm - N/A   Overcast
7:00 AM 55.4 °F 53.6 °F 94% 29.98 in 6.2 mi ENE 4.6 mph - N/A   Overcast
7:30 AM 57.2 °F 53.6 °F 88% 30.01 in 6.2 mi East 5.8 mph - N/A   Overcast
8:00 AM 59.0 °F 53.6 °F 82% 30.01 in 6.2 mi ENE 5.8 mph - N/A   Overcast
8:30 AM 60.8 °F 55.4 °F 82% 29.98 in 6.2 mi ENE 6.9 mph - N/A   Overcast
9:00 AM 63 °F 55 °F 67% 30.01 in 12 mi ENE 8.1 mph - -   Haze
9:00 AM 62.6 °F 55.4 °F 77% 30.01 in 6.2 mi ENE 8.1 mph - N/A   Overcast
9:30 AM 64.4 °F 55.4 °F 73% 29.98 in 6.2 mi ENE 9.2 mph - N/A   Overcast
10:00 AM 65 °F 54 °F 60% 29.99 in - ENE 10.4 mph - -  
10:00 AM 64.4 °F 55.4 °F 73% 29.98 in 6.2 mi ENE 10.4 mph - N/A   Overcast
10:30 AM 64.4 °F 55.4 °F 73% 29.95 in 6.2 mi NE 10.4 mph - N/A   Overcast
11:00 AM 66.2 °F 53.6 °F 64% 29.95 in 6.2 mi NE 12.7 mph - N/A   Overcast
11:30 AM 66.2 °F 53.6 °F 64% 29.92 in 6.2 mi NE 12.7 mph - N/A   Overcast
12:00 PM 65 °F 54 °F 58% 29.92 in 16 mi NE 13.8 mph - -   Haze
12:00 PM 66.2 °F 53.6 °F 64% 29.89 in 6.2 mi NE 13.8 mph - N/A   Overcast
12:30 PM 66.2 °F 53.6 °F 64% 29.89 in 6.2 mi NE 12.7 mph - N/A   Overcast
1:00 PM 65 °F 54 °F 59% 29.89 in - NE 13.8 mph - -  
1:00 PM 64.4 °F 53.6 °F 68% 29.89 in 6.2 mi NE 13.8 mph - N/A   Overcast
1:30 PM 62.6 °F 57.2 °F 82% 29.86 in 6.2 mi NE 12.7 mph - N/A Rain Light Rain Showers
2:00 PM 62.6 °F 59.0 °F 88% 29.86 in 6.2 mi NE 8.1 mph - N/A Rain Light Rain
2:30 PM 60.8 °F 59.0 °F 94% 29.83 in 6.2 mi NE 9.2 mph - N/A Rain Light Rain
3:00 PM 62.6 °F 60.8 °F 94% 29.83 in 6.2 mi NE 8.1 mph - N/A Rain Rain
3:13 PM 60.8 °F 59.0 °F 94% 29.80 in 6.2 mi NE 8.1 mph - N/A   Overcast
3:30 PM 60.8 °F 59.0 °F 94% 29.80 in 6.2 mi NE 9.2 mph - N/A Rain Rain Showers
3:42 PM 60.8 °F 59.0 °F 94% 29.80 in 6.2 mi NE 9.2 mph - N/A Rain Rain Showers
3:46 PM 60.8 °F 59.0 °F 94% 29.80 in 6.2 mi NE 10.4 mph - N/A Rain Light Rain Showers
3:57 PM 60.8 °F 59.0 °F 94% 29.80 in 6.2 mi NE 11.5 mph - N/A Rain Rain Showers
4:14 PM 60.8 °F 59.0 °F 94% 29.80 in 5.0 mi ENE 10.4 mph - N/A Rain Rain Showers
4:30 PM 60.8 °F 59.0 °F 94% 29.80 in 5.0 mi NE 8.1 mph - N/A Rain Rain
4:53 PM 60.8 °F 59.0 °F 94% 29.80 in 6.2 mi ENE 10.4 mph - N/A Rain Rain
5:00 PM 60.8 °F 59.0 °F 94% 29.77 in 5.0 mi ENE 9.2 mph - N/A Rain Rain
5:30 PM 60.8 °F 59.0 °F 94% 29.77 in 6.2 mi ENE 10.4 mph - N/A Rain Light Rain
5:42 PM 60.8 °F 59.0 °F 94% 29.77 in 6.2 mi ENE 9.2 mph - N/A Rain Light Rain
6:00 PM 61 °F 60 °F 94% 29.78 in - ENE 10.4 mph - -   Overcast
6:00 PM 60.8 °F 59.0 °F 94% 29.77 in 6.2 mi ENE 10.4 mph - N/A Rain Light Rain
6:30 PM 60.8 °F 59.0 °F 94% 29.77 in 6.2 mi NE 10.4 mph - N/A Rain Rain
7:00 PM 62 °F 60 °F 92% 29.76 in - ENE 10.4 mph - -  
7:00 PM 60.8 °F 60.8 °F 100% 29.74 in 6.2 mi ENE 10.4 mph - N/A Rain Rain
7:30 PM 62.6 °F 60.8 °F 94% 29.74 in 6.2 mi ENE 10.4 mph - N/A Rain Light Rain
8:00 PM 60.8 °F 60.8 °F 100% 29.71 in 6.2 mi NE 12.7 mph - N/A Rain Light Rain
8:30 PM 62.6 °F 60.8 °F 94% 29.71 in 6.2 mi NE 10.4 mph - N/A Rain Light Rain
9:00 PM 62 °F 60 °F 91% 29.71 in - ENE 10.4 mph - -  
9:00 PM 62.6 °F 60.8 °F 94% 29.68 in 6.2 mi ENE 10.4 mph - N/A   Heavy Drizzle
9:30 PM 62.6 °F 60.8 °F 94% 29.68 in 6.2 mi ENE 9.2 mph - N/A Rain Light Rain Showers
10:00 PM 62 °F 59 °F 88% 29.67 in - NE 12.7 mph - -  
10:00 PM 62.6 °F 59.0 °F 88% 29.65 in 6.2 mi NE 12.7 mph - N/A   Overcast
10:30 PM 62.6 °F 59.0 °F 88% 29.65 in 6.2 mi NE 13.8 mph 25.3 mph N/A   Overcast
11:00 PM 62.6 °F 59.0 °F 88% 29.62 in 6.2 mi NE 13.8 mph - N/A Rain Light Rain Showers
11:30 PM 62.6 °F 59.0 °F 88% 29.62 in 6.2 mi NNE 15.0 mph - N/A Rain Light Rain Showers